Tracking 32938 objects as of 13-Jan-2026
HD Live streaming from Space Station
objects crossing your sky now

STARLINK-36096

Track STARLINK-36096 now!
10-day predictions
STARLINK-36096 is classified as:


NORAD ID: 66949
Int'l Code: 2025-286AA
Perigee: 453.6 km
Apogee: 455.3 km
Inclination: 53.2 °
Period: 93.5 minutes
Semi major axis: 6825 km
RCS: Unknown
Launch date: December 7, 2025
Source: United States (US)
Launch site: AIR FORCE WESTERN TEST RANGE (AFWTR)
Your satellite tracking list
Your tracking list is empty




NASA's NSSDC Master Catalog

Two Line Element Set (TLE):
1 66949U 25286AA  26012.25002315  .00037392  00000-0  94125-3 0  9994
2 66949  53.1586 262.5696 0001246 110.0402  42.1080 15.39586102  6125
Source of the keplerian elements: AFSPC